SCP
0 0 0 0 0 0 0 0 0 0 0 0 0 0 0 0 0 0 0 0 0 0 0 0 0 0 0 0 0 -0 -0 -0 -0 0 0 0 0 0 0 0 0 0 0 0 0 0 0
0 0 0 0 0 0 0 0 0 0 0 0 0 0 0 0 0 0 0 0 0 0 0 0 0 0 0 0 0 -0 -0 -0 -0 -0 0 0 0 0 0 0 0 0 0 0 0 0 0
0 0 0 0 0 0 0 0 0 0 0 0 0 0 0 0 0 0 0 0 0 0 0 0 0 0 0 0 -0 -0 -0 -0 -0 0 0 0 0 0 0 0 0 0 0 0 0 0 0
0 0 0 0 0 0 0 0 0 0 0 0 0 0 0 0 0 0 0 0 0 0 0 0 0 0 0 0 0 0 0 0 0 -0 0 0 0 0 0 0 0 0 0 0 0 0 0
0 0 0 0 0 0 0 0 0 0 0 0 0 0 0 0 0 0 0 0 -0 0 0 0 0 0 0 0 0 0 0 -0 -0 -0 -0 0 0 0 0 0 0 0 0 0 0 0 0
0 0 0 0 0 0 0 0 0 0 0 0 0 0 0 0 0 0 0 0 0 0 0 0 0 0 0 0 0 0 0 -0 -0 -0 0 0 0 0 0 0 0 0 0 0 0 0 0
0 0 0 0 0 0 0 0 0 0 0 0 0 0 0 0 0 0 0 0 -0 0 0 0 0 0 0 0 0 -0 0 -0 -0 0 0 0 0 0 0 0 0 0 0 0 0 0 0
0 0 0 0 0 0 0 0 0 0 0 0 0 0 0 0 0 0 0 0 0 0 0 0 0 0 0 0 0 0 0 0 0 0 0 0 0 0 0 0 0 0 0 0 0 0 0
0 0 0 0 0 0 0 0 0 0 0 0 0 0 0 0 0 0 0 0 0 0 0 0 0 0 0 0 0 0 0 -0 0 0 0 0 0 0 0 0 0 0 0 0 0 0 0
0 0 0 0 0 0 0 0 0 0 0 0 0 0 0 0 0 0 0 0 0 0 0 0 0 0 0 0 0 0 0 0 0 0 0 0 0 0 0 0 0 0 0 0 0 0 0
0 0 0 0 0 0 0 0 0 0 0 0 0 0 0 0 0 0 0 0 0 0 0 0 0 0 0 0 0 0 0 0 0 0 0 0 0 0 0 0 0 0 0 0 0 0 0
0 0 0 0 0 0 0 0 0 0 0 0 0 0 0 0 0 0 0 0 0 0 -0 0 0 0 0 0 0 0 0 0 0 0 0 0 0 0 0 0 0 0 0 0 0 0 0
0 0 0 0 0 0 0 0 0 0 0 0 0 0 0 0 0 0 0 0 0 0 0 0 0 0 0 0 0 0 0 0 0 0 0 0 0 0 0 0 0 0 0 0 0 0 0
0 0 0 0 0 0 0 0 0 0 0 0 0 0 0 0 0 0 0 0 0 0 0 0 0 0 0 0 0 0 0 0 0 0 0 0 0 0 0 0 0 0 0 0 0 0 0
0 0 0 0 0 0 0 0 0 0 0 0 0 0 0 0 0 0 0 0 0 0 0 0 0 0 0 0 0 0 0 0 0 0 0 0 0 0 0 0 0 0 0 0 0 0 0
0 0 0 0 0 0 0 0 0 0 0 0 0 0 0 0 0 0 0 0 0 0 0 0 0 0 0 0 0 0 0 0 0 0 0 0 0 0 0 0 0 0 0 0 0 0 0
0 0 0 0 0 0 0 0 0 0 0 0 0 0 0 0 0 0 0 0 0 0 0 0 0 0 0 0 0 0 0 0 0 0 0 0 0 0 0 0 0 0 0 0 0 0 0
0 0 0 0 0 0 0 0 0 0 0 0 0 0 0 0 0 0 0 0 0 0 0 0 0 0 0 0 0 0 0 0 0 0 0 0 0 0 0 0 0 0 0 0 0 0 0
0 0 0 0 0 0 0 0 0 0 0 0 0 0 0 0 0 0 0 0 0 0 0 0 0 0 0 0 0 0 0 0 0 0 0 0 0 0 0 0 0 0 0 0 0 0 0
0 0 0 0 0 0 0 0 0 0 0 0 0 0 0 0 0 0 0 0 0 0 0 0 0 0 0 0 0 0 0 0 0 0 0 0 0 0 0 0 0 0 0 0 0 0 0
0 0 0 0 0 0 0 0 0 0 0 0 0 0 0 0 0 0 0 0 0 0 0 0 0 0 0 0 0 0 0 0 0 0 0 0 0 0 0 0 0 0 0 0 0 0 0
0 0 0 0 0 0 0 0 0 0 0 0 0 0 0 0 0 0 0 0 0 0 0 0 0 0 0 0 0 0 0 0 0 0 0 0 0 0 0 0 0 0 0 0 0 0 0
0 0 0 0 0 0 0 0 0 0 0 0 0 0 0 0 0 0 0 0 0 0 0 0 0 0 0 0 0 0 0 0 0 0 0 0 0 0 0 0 0 0 0 0 0 0 0
0 0 0 0 0 0 0 0 0 0 0 0 0 0 0 0 0 0 0 0 0 0 0 0 0 0 0 0 0 0 0 0 0 0 0 0 0 0 0 0 0 0 0 0 0 0 0
0 0 0 0 0 0 0 0 1 0 0 0 0 0 0 0 0 0 0 0 0 0 0 0 0 0 0 0 0 0 0 0 0 0 0 0 0 0 0 0 0 0 0 0 0 0 0
0 0 0 0 0 0 0 0 0 0 0 0 0 0 0 0 0 0 0 0 0 0 0 0 0 0 0 0 0 0 0 0 0 0 0 0 0 0 0 0 0 0 0 0 0 0 0
0 0 0 0 0 0 0 0 0 0 0 0 0 0 0 0 0 0 0 0 0 0 0 0 0 0 0 0 0 0 0 0 0 0 0 0 0 0 0 0 0 0 0 0 0 0 0
0 0 0 0 0 0 0 0 0 0 0 0 0 0 0 0 0 0 0 0 0 0 0 0 0 0 0 0 0 0 0 0 0 0 0 0 0 0 0 0 0 0 0 0 0 0 0
0 0 0 0 0 0 0 0 0 0 0 0 0 0 0 0 0 0 0 0 0 0 0 0 0 0 0 0 0 0 0 0 0 0 0 0 0 0 0 0 0 0 0 0 0 0 0
Wind_Speed_500mb
22 17 14 10 7 5 6 9 13 18 22 29 34 38 40 43 46 48 48 49 51 53 55 68 66 33 20 14 12 11 13 21 25 17 16 14 10 12 5 7 10 6 11 23 41 55 47
25 22 18 15 12 10 9 12 15 20 25 29 33 36 40 44 47 47 48 48 52 54 50 70 58 29 12 11 7 4 22 29 18 15 14 10 6 14 11 7 4 7 27 47 50 54 20
30 26 21 18 16 12 11 13 18 22 26 29 33 37 42 47 49 47 48 49 54 52 49 68 50 19 19 12 4 18 22 22 25 25 18 13 12 6 9 9 10 13 13 18 13 11 13
34 29 25 22 19 15 14 16 20 24 27 30 33 37 44 47 46 47 48 48 52 46 54 61 33 8 8 11 11 18 18 18 21 26 22 17 14 3 3 15 10 10 5 13 15 14 9
36 32 28 26 22 18 16 18 22 25 27 30 35 39 41 44 46 48 48 49 49 40 60 52 12 2 5 8 13 22 25 15 18 21 15 15 10 6 4 6 10 13 13 15 22 13 7
39 36 34 29 24 23 20 21 24 28 29 32 37 40 41 46 47 49 47 50 48 32 65 38 5 3 5 9 10 20 27 19 16 22 9 14 9 6 7 11 6 13 14 13 20 12 5
44 41 36 31 30 26 23 26 28 28 29 34 39 41 43 45 46 45 52 57 53 15 61 18 31 9 8 18 3 25 37 15 24 26 9 12 10 9 10 5 5 9 8 28 38 23 10
46 43 39 37 34 29 28 29 30 30 31 35 39 40 42 43 44 37 47 36 26 21 26 17 7 5 7 17 7 27 32 14 18 10 11 14 9 7 2 4 5 7 17 24 32 17 17
49 47 44 40 36 33 34 32 32 33 33 37 39 39 41 39 39 36 40 37 34 31 9 12 6 5 7 15 7 18 25 13 10 7 3 5 19 2 5 5 3 8 13 12 14 42 39
54 51 47 45 40 38 38 34 33 33 34 38 40 39 38 35 23 38 28 36 35 27 9 7 5 4 9 13 1 22 23 15 7 6 6 12 7 3 6 8 7 5 1 14 19 13 32
58 55 52 48 43 43 42 35 34 35 37 38 39 37 35 30 29 30 32 32 31 9 11 8 5 3 9 9 16 12 21 10 2 10 5 16 11 10 10 8 1 11 14 10 12 44 32
62 59 55 51 49 48 45 38 35 37 38 38 38 36 30 29 27 24 29 27 18 9 12 6 6 12 11 12 11 18 13 13 4 5 2 13 13 5 7 7 9 10 17 39 19 4 9
66 62 58 56 54 48 49 42 37 40 37 38 39 36 30 27 24 23 21 17 9 6 4 5 5 8 4 8 8 11 9 12 6 15 7 10 10 4 13 11 11 24 12 11 11 7 25
69 66 63 60 57 50 51 48 41 42 39 39 40 37 31 28 23 18 8 9 8 10 12 6 6 6 8 6 2 11 6 8 11 6 7 9 12 1 6 8 4 10 7 4 11 23 51
72 70 67 62 61 52 48 51 49 43 42 40 40 37 34 31 24 17 8 3 13 13 2 5 8 7 4 6 2 5 4 4 7 9 4 12 12 10 20 4 2 10 7 14 13 25 19
77 74 70 64 62 56 51 52 50 46 46 42 40 31 37 34 27 17 6 14 11 8 7 5 15 10 10 5 3 5 1 7 8 11 7 3 20 3 3 7 7 11 11 9 5 9 13
82 80 77 69 63 61 58 54 52 50 48 43 34 13 19 19 20 15 9 16 11 10 11 11 8 9 10 7 4 5 5 4 4 4 15 2 5 15 6 3 23 9 7 7 9 7 11
84 83 81 77 71 70 67 65 60 57 52 42 27 5 16 24 9 6 7 11 4 8 10 8 7 14 13 12 9 8 11 5 10 3 6 1 4 10 21 33 6 15 10 6 2 19 23
86 85 85 84 80 75 74 75 72 71 60 45 15 20 20 35 9 8 6 6 7 8 8 7 10 6 5 12 6 11 9 18 15 7 10 7 5 9 19 5 0 8 15 22 22 24 32
93 90 88 89 85 87 86 87 78 80 72 51 16 5 15 32 11 8 8 8 8 10 9 6 7 8 7 9 4 10 9 15 4 13 11 12 6 13 14 27 19 29 41 42 20 19 29
104 101 97 95 92 94 95 92 91 88 82 53 34 13 17 9 14 12 11 5 8 11 5 10 2 10 13 12 7 10 4 3 3 6 13 6 8 12 17 26 26 30 40 42 35 38 39
112 109 107 107 105 105 106 103 106 110 89 69 28 17 19 10 10 15 21 19 26 8 14 7 10 10 12 12 11 13 11 9 8 6 6 3 8 13 20 30 20 32 38 40 36 26 33
104 113 113 113 117 117 118 116 122 104 91 50 64 35 22 19 11 12 11 18 27 22 8 19 17 13 8 9 11 8 17 16 10 10 8 6 1 6 11 15 28 11 9 22 34 28 25
106 102 101 107 120 122 131 126 126 119 103 76 68 49 27 13 17 16 12 35 23 17 22 8 26 11 11 15 3 12 22 24 27 27 28 8 9 4 9 11 8 9 35 20 20 26 36
116 114 117 121 123 130 138 135 121 104 95 95 67 60 35 7 24 20 24 16 4 17 5 14 11 12 26 10 3 8 4 4 2 4 16 26 6 4 3 6 27 19 6 7 13 54 52
114 123 122 130 129 142 142 118 104 91 91 94 85 74 40 14 14 21 14 19 10 8 5 6 16 27 14 4 4 7 7 7 4 2 7 13 16 9 6 3 11 9 12 21 43 34 23
120 130 128 131 144 131 98 93 77 75 87 94 81 72 52 20 14 29 14 20 21 11 8 14 18 10 14 6 3 5 7 4 7 10 9 2 6 18 13 12 17 20 15 44 10 31 75
125 125 131 143 127 99 93 78 77 84 76 73 71 60 55 17 13 33 28 19 25 25 11 25 14 6 8 11 8 8 8 9 4 6 10 10 6 8 4 2 16 10 48 19 34 65 63
106 113 116 101 96 88 78 94 94 74 63 60 57 61 52 19 10 33 35 36 36 33 35 50 7 16 20 7 6 3 1 1 5 5 7 8 14 7 15 13 25 63 48 59 46 45 57
Wind_Direction_500mb
218 220 230 239 247 276 314 342 356 358 355 358 360 359 357 358 1 2 4 1 358 356 356 352 348 1 3 75 71 41 37 355 339 342 2 2 3 0 359 305 302 218 287 299 287 289 277
221 228 232 237 245 260 302 332 343 345 346 350 351 352 352 354 358 359 0 0 355 354 349 349 346 359 46 75 53 14 336 339 9 26 356 1 350 323 284 245 210 270 286 291 299 303 299
229 233 236 243 249 264 294 321 334 333 337 341 343 347 348 351 352 354 357 358 351 348 347 346 342 3 70 92 13 339 5 28 32 17 359 349 328 315 319 312 309 297 308 319 305 327 310
235 236 239 244 250 265 293 317 318 324 330 333 338 344 345 344 345 351 354 354 350 343 349 345 341 354 119 64 39 25 24 30 31 16 347 345 335 314 213 307 332 344 27 348 298 350 342
238 238 240 243 247 260 281 297 308 312 317 327 335 341 339 336 344 349 350 350 349 341 349 343 337 2 111 49 35 24 9 358 18 8 5 6 356 49 40 43 3 9 306 308 319 324 325
236 238 241 244 248 259 277 290 293 301 316 329 332 334 333 337 345 347 347 350 351 350 346 343 346 356 54 348 13 19 354 345 6 19 359 16 20 48 30 52 321 297 310 275 290 297 13
236 237 240 244 249 258 271 279 288 302 315 324 324 327 332 337 343 345 346 354 5 350 344 337 302 269 332 357 106 15 1 1 16 6 19 5 32 287 262 193 199 269 261 288 300 303 329
236 239 241 244 251 260 267 273 286 299 309 314 315 322 331 338 342 346 351 14 11 320 304 333 327 325 356 357 336 358 2 29 18 338 345 4 295 248 248 233 175 268 295 286 294 302 331
238 240 242 246 253 260 266 271 283 294 303 306 310 321 331 337 339 345 349 357 349 342 290 310 328 343 352 343 350 332 14 35 49 343 331 252 260 315 184 279 235 232 241 285 275 320 307
238 241 243 248 253 259 262 269 281 290 295 300 309 321 329 334 339 340 340 341 339 341 50 284 293 301 337 334 27 22 20 16 351 296 301 245 299 323 316 297 243 263 141 274 297 340 302
239 241 244 248 255 258 264 271 277 285 290 296 306 316 319 323 328 331 329 333 333 338 357 275 286 316 345 357 340 12 18 9 252 265 83 258 316 311 310 275 197 249 338 298 272 298 298
239 241 244 250 255 258 264 268 275 281 284 292 301 306 305 310 317 324 324 326 327 30 261 311 334 358 6 11 11 327 4 36 344 349 280 251 284 237 191 54 96 317 348 315 303 275 279
239 241 244 250 256 260 267 264 269 275 278 289 297 295 291 297 309 316 318 327 12 167 334 290 317 23 30 305 343 37 16 27 33 351 337 328 277 98 52 28 351 11 336 325 334 354 271
239 240 244 249 253 257 267 267 273 280 281 289 293 286 282 283 290 294 291 41 205 231 239 34 2 316 241 6 355 358 43 21 36 31 292 340 320 22 29 68 337 280 114 186 303 299 290
238 241 244 249 253 257 267 265 280 286 281 285 289 279 277 276 273 271 167 129 224 214 207 351 325 265 251 240 347 44 107 112 48 354 40 342 254 334 65 30 28 329 67 185 243 259 279
240 242 244 246 255 255 258 266 280 287 280 285 283 274 270 263 258 222 110 230 240 200 138 139 192 202 234 223 7 47 287 20 120 43 303 16 296 56 353 24 53 59 331 10 14 298 277
243 243 245 245 247 253 257 261 270 278 279 279 273 273 248 234 198 173 196 224 249 233 197 178 234 253 220 202 172 205 234 41 64 79 58 169 189 282 46 53 305 15 52 15 285 228 278
245 245 246 245 243 249 254 258 261 265 269 268 244 239 228 194 164 212 196 207 215 205 216 250 211 214 195 169 191 224 218 79 123 173 96 217 244 270 286 285 150 125 152 141 222 283 281
245 245 246 247 243 243 251 255 259 256 257 254 224 231 210 189 211 223 230 241 235 185 216 211 217 190 136 179 205 189 143 148 125 138 150 190 229 316 321 111 166 39 310 290 279 263 268
246 246 246 246 245 244 244 253 260 251 250 236 224 239 195 203 230 177 169 223 227 198 232 184 151 128 128 192 343 186 173 210 243 185 216 193 225 216 245 280 306 300 302 300 297 288 286
246 246 247 249 248 245 245 245 251 251 247 219 203 229 201 193 221 179 138 147 253 212 229 210 184 203 177 180 188 202 135 25 225 256 169 173 254 246 266 271 275 272 272 279 280 277 278
246 247 247 248 248 247 245 247 248 242 233 204 206 188 170 159 134 181 181 199 203 227 182 218 226 193 192 191 197 176 146 174 231 130 128 156 280 312 284 264 260 285 279 278 276 284 288
249 248 249 249 249 246 246 244 241 227 219 200 211 211 189 166 170 173 198 193 199 197 233 209 204 139 193 218 188 229 210 194 196 175 166 202 239 18 272 316 316 309 244 312 299 291 275
253 253 253 254 249 246 242 242 242 235 220 205 207 199 186 223 195 201 199 205 207 210 226 168 170 140 154 145 225 270 261 251 232 233 210 211 175 178 271 3 343 229 308 295 265 281 303
256 253 252 248 248 246 240 238 227 212 207 201 202 198 198 221 207 196 184 184 83 185 127 153 155 166 152 126 99 358 347 45 87 148 187 201 170 261 215 204 281 292 272 344 358 308 300
258 257 250 244 246 236 227 217 212 207 203 206 215 215 190 120 215 194 154 182 179 155 96 104 139 149 142 108 138 155 234 217 276 337 51 169 216 201 94 206 258 244 309 355 317 289 330
261 251 238 242 229 209 205 202 205 203 207 214 203 205 198 170 195 179 173 184 167 131 144 144 152 168 170 150 112 161 235 205 227 169 169 177 253 227 244 245 273 257 296 330 349 313 328
252 239 227 221 203 204 202 206 199 196 195 204 201 185 183 173 177 195 196 177 162 168 153 158 117 190 163 187 159 206 221 208 207 191 170 176 218 214 114 201 277 181 337 333 305 315 325
204 195 192 196 197 193 204 195 198 199 189 192 188 193 201 186 191 226 213 215 222 214 164 167 181 146 164 159 183 105 234 233 168 254 180 229 201 195 199 226 281 301 293 304 313 327 328
Wind_Speed_850mb
22 17 14 10 7 5 6 9 13 18 22 29 34 38 40 43 46 48 48 49 51 53 55 68 66 33 20 14 12 11 13 21 25 17 16 14 10 12 5 7 10 6 11 23 41 55 47
25 22 18 15 12 10 9 12 15 20 25 29 33 36 40 44 47 47 48 48 52 54 50 70 58 29 12 11 7 4 22 29 18 15 14 10 6 14 11 7 4 7 27 47 50 54 20
30 26 21 18 16 12 11 13 18 22 26 29 33 37 42 47 49 47 48 49 54 52 49 68 50 19 19 12 4 18 22 22 25 25 18 13 12 6 9 9 10 13 13 18 13 11 13
34 29 25 22 19 15 14 16 20 24 27 30 33 37 44 47 46 47 48 48 52 46 54 61 33 8 8 11 11 18 18 18 21 26 22 17 14 3 3 15 10 10 5 13 15 14 9
36 32 28 26 22 18 16 18 22 25 27 30 35 39 41 44 46 48 48 49 49 40 60 52 12 2 5 8 13 22 25 15 18 21 15 15 10 6 4 6 10 13 13 15 22 13 7
39 36 34 29 24 23 20 21 24 28 29 32 37 40 41 46 47 49 47 50 48 32 65 38 5 3 5 9 10 20 27 19 16 22 9 14 9 6 7 11 6 13 14 13 20 12 5
44 41 36 31 30 26 23 26 28 28 29 34 39 41 43 45 46 45 52 57 53 15 61 18 31 9 8 18 3 25 37 15 24 26 9 12 10 9 10 5 5 9 8 28 38 23 10
46 43 39 37 34 29 28 29 30 30 31 35 39 40 42 43 44 37 47 36 26 21 26 17 7 5 7 17 7 27 32 14 18 10 11 14 9 7 2 4 5 7 17 24 32 17 17
49 47 44 40 36 33 34 32 32 33 33 37 39 39 41 39 39 36 40 37 34 31 9 12 6 5 7 15 7 18 25 13 10 7 3 5 19 2 5 5 3 8 13 12 14 42 39
54 51 47 45 40 38 38 34 33 33 34 38 40 39 38 35 23 38 28 36 35 27 9 7 5 4 9 13 1 22 23 15 7 6 6 12 7 3 6 8 7 5 1 14 19 13 32
58 55 52 48 43 43 42 35 34 35 37 38 39 37 35 30 29 30 32 32 31 9 11 8 5 3 9 9 16 12 21 10 2 10 5 16 11 10 10 8 1 11 14 10 12 44 32
62 59 55 51 49 48 45 38 35 37 38 38 38 36 30 29 27 24 29 27 18 9 12 6 6 12 11 12 11 18 13 13 4 5 2 13 13 5 7 7 9 10 17 39 19 4 9
66 62 58 56 54 48 49 42 37 40 37 38 39 36 30 27 24 23 21 17 9 6 4 5 5 8 4 8 8 11 9 12 6 15 7 10 10 4 13 11 11 24 12 11 11 7 25
69 66 63 60 57 50 51 48 41 42 39 39 40 37 31 28 23 18 8 9 8 10 12 6 6 6 8 6 2 11 6 8 11 6 7 9 12 1 6 8 4 10 7 4 11 23 51
72 70 67 62 61 52 48 51 49 43 42 40 40 37 34 31 24 17 8 3 13 13 2 5 8 7 4 6 2 5 4 4 7 9 4 12 12 10 20 4 2 10 7 14 13 25 19
77 74 70 64 62 56 51 52 50 46 46 42 40 31 37 34 27 17 6 14 11 8 7 5 15 10 10 5 3 5 1 7 8 11 7 3 20 3 3 7 7 11 11 9 5 9 13
82 80 77 69 63 61 58 54 52 50 48 43 34 13 19 19 20 15 9 16 11 10 11 11 8 9 10 7 4 5 5 4 4 4 15 2 5 15 6 3 23 9 7 7 9 7 11
84 83 81 77 71 70 67 65 60 57 52 42 27 5 16 24 9 6 7 11 4 8 10 8 7 14 13 12 9 8 11 5 10 3 6 1 4 10 21 33 6 15 10 6 2 19 23
86 85 85 84 80 75 74 75 72 71 60 45 15 20 20 35 9 8 6 6 7 8 8 7 10 6 5 12 6 11 9 18 15 7 10 7 5 9 19 5 0 8 15 22 22 24 32
93 90 88 89 85 87 86 87 78 80 72 51 16 5 15 32 11 8 8 8 8 10 9 6 7 8 7 9 4 10 9 15 4 13 11 12 6 13 14 27 19 29 41 42 20 19 29
104 101 97 95 92 94 95 92 91 88 82 53 34 13 17 9 14 12 11 5 8 11 5 10 2 10 13 12 7 10 4 3 3 6 13 6 8 12 17 26 26 30 40 42 35 38 39
112 109 107 107 105 105 106 103 106 110 89 69 28 17 19 10 10 15 21 19 26 8 14 7 10 10 12 12 11 13 11 9 8 6 6 3 8 13 20 30 20 32 38 40 36 26 33
104 113 113 113 117 117 118 116 122 104 91 50 64 35 22 19 11 12 11 18 27 22 8 19 17 13 8 9 11 8 17 16 10 10 8 6 1 6 11 15 28 11 9 22 34 28 25
106 102 101 107 120 122 131 126 126 119 103 76 68 49 27 13 17 16 12 35 23 17 22 8 26 11 11 15 3 12 22 24 27 27 28 8 9 4 9 11 8 9 35 20 20 26 36
116 114 117 121 123 130 138 135 121 104 95 95 67 60 35 7 24 20 24 16 4 17 5 14 11 12 26 10 3 8 4 4 2 4 16 26 6 4 3 6 27 19 6 7 13 54 52
114 123 122 130 129 142 142 118 104 91 91 94 85 74 40 14 14 21 14 19 10 8 5 6 16 27 14 4 4 7 7 7 4 2 7 13 16 9 6 3 11 9 12 21 43 34 23
120 130 128 131 144 131 98 93 77 75 87 94 81 72 52 20 14 29 14 20 21 11 8 14 18 10 14 6 3 5 7 4 7 10 9 2 6 18 13 12 17 20 15 44 10 31 75
125 125 131 143 127 99 93 78 77 84 76 73 71 60 55 17 13 33 28 19 25 25 11 25 14 6 8 11 8 8 8 9 4 6 10 10 6 8 4 2 16 10 48 19 34 65 63
106 113 116 101 96 88 78 94 94 74 63 60 57 61 52 19 10 33 35 36 36 33 35 50 7 16 20 7 6 3 1 1 5 5 7 8 14 7 15 13 25 63 48 59 46 45 57
Wind_Direction_850mb
218 220 230 239 247 276 314 342 356 358 355 358 360 359 357 358 1 2 4 1 358 356 356 352 348 1 3 75 71 41 37 355 339 342 2 2 3 0 359 305 302 218 287 299 287 289 277
221 228 232 237 245 260 302 332 343 345 346 350 351 352 352 354 358 359 0 0 355 354 349 349 346 359 46 75 53 14 336 339 9 26 356 1 350 323 284 245 210 270 286 291 299 303 299
229 233 236 243 249 264 294 321 334 333 337 341 343 347 348 351 352 354 357 358 351 348 347 346 342 3 70 92 13 339 5 28 32 17 359 349 328 315 319 312 309 297 308 319 305 327 310
235 236 239 244 250 265 293 317 318 324 330 333 338 344 345 344 345 351 354 354 350 343 349 345 341 354 119 64 39 25 24 30 31 16 347 345 335 314 213 307 332 344 27 348 298 350 342
238 238 240 243 247 260 281 297 308 312 317 327 335 341 339 336 344 349 350 350 349 341 349 343 337 2 111 49 35 24 9 358 18 8 5 6 356 49 40 43 3 9 306 308 319 324 325
236 238 241 244 248 259 277 290 293 301 316 329 332 334 333 337 345 347 347 350 351 350 346 343 346 356 54 348 13 19 354 345 6 19 359 16 20 48 30 52 321 297 310 275 290 297 13
236 237 240 244 249 258 271 279 288 302 315 324 324 327 332 337 343 345 346 354 5 350 344 337 302 269 332 357 106 15 1 1 16 6 19 5 32 287 262 193 199 269 261 288 300 303 329
236 239 241 244 251 260 267 273 286 299 309 314 315 322 331 338 342 346 351 14 11 320 304 333 327 325 356 357 336 358 2 29 18 338 345 4 295 248 248 233 175 268 295 286 294 302 331
238 240 242 246 253 260 266 271 283 294 303 306 310 321 331 337 339 345 349 357 349 342 290 310 328 343 352 343 350 332 14 35 49 343 331 252 260 315 184 279 235 232 241 285 275 320 307
238 241 243 248 253 259 262 269 281 290 295 300 309 321 329 334 339 340 340 341 339 341 50 284 293 301 337 334 27 22 20 16 351 296 301 245 299 323 316 297 243 263 141 274 297 340 302
239 241 244 248 255 258 264 271 277 285 290 296 306 316 319 323 328 331 329 333 333 338 357 275 286 316 345 357 340 12 18 9 252 265 83 258 316 311 310 275 197 249 338 298 272 298 298
239 241 244 250 255 258 264 268 275 281 284 292 301 306 305 310 317 324 324 326 327 30 261 311 334 358 6 11 11 327 4 36 344 349 280 251 284 237 191 54 96 317 348 315 303 275 279
239 241 244 250 256 260 267 264 269 275 278 289 297 295 291 297 309 316 318 327 12 167 334 290 317 23 30 305 343 37 16 27 33 351 337 328 277 98 52 28 351 11 336 325 334 354 271
239 240 244 249 253 257 267 267 273 280 281 289 293 286 282 283 290 294 291 41 205 231 239 34 2 316 241 6 355 358 43 21 36 31 292 340 320 22 29 68 337 280 114 186 303 299 290
238 241 244 249 253 257 267 265 280 286 281 285 289 279 277 276 273 271 167 129 224 214 207 351 325 265 251 240 347 44 107 112 48 354 40 342 254 334 65 30 28 329 67 185 243 259 279
240 242 244 246 255 255 258 266 280 287 280 285 283 274 270 263 258 222 110 230 240 200 138 139 192 202 234 223 7 47 287 20 120 43 303 16 296 56 353 24 53 59 331 10 14 298 277
243 243 245 245 247 253 257 261 270 278 279 279 273 273 248 234 198 173 196 224 249 233 197 178 234 253 220 202 172 205 234 41 64 79 58 169 189 282 46 53 305 15 52 15 285 228 278
245 245 246 245 243 249 254 258 261 265 269 268 244 239 228 194 164 212 196 207 215 205 216 250 211 214 195 169 191 224 218 79 123 173 96 217 244 270 286 285 150 125 152 141 222 283 281
245 245 246 247 243 243 251 255 259 256 257 254 224 231 210 189 211 223 230 241 235 185 216 211 217 190 136 179 205 189 143 148 125 138 150 190 229 316 321 111 166 39 310 290 279 263 268
246 246 246 246 245 244 244 253 260 251 250 236 224 239 195 203 230 177 169 223 227 198 232 184 151 128 128 192 343 186 173 210 243 185 216 193 225 216 245 280 306 300 302 300 297 288 286
246 246 247 249 248 245 245 245 251 251 247 219 203 229 201 193 221 179 138 147 253 212 229 210 184 203 177 180 188 202 135 25 225 256 169 173 254 246 266 271 275 272 272 279 280 277 278
246 247 247 248 248 247 245 247 248 242 233 204 206 188 170 159 134 181 181 199 203 227 182 218 226 193 192 191 197 176 146 174 231 130 128 156 280 312 284 264 260 285 279 278 276 284 288
249 248 249 249 249 246 246 244 241 227 219 200 211 211 189 166 170 173 198 193 199 197 233 209 204 139 193 218 188 229 210 194 196 175 166 202 239 18 272 316 316 309 244 312 299 291 275
253 253 253 254 249 246 242 242 242 235 220 205 207 199 186 223 195 201 199 205 207 210 226 168 170 140 154 145 225 270 261 251 232 233 210 211 175 178 271 3 343 229 308 295 265 281 303
256 253 252 248 248 246 240 238 227 212 207 201 202 198 198 221 207 196 184 184 83 185 127 153 155 166 152 126 99 358 347 45 87 148 187 201 170 261 215 204 281 292 272 344 358 308 300
258 257 250 244 246 236 227 217 212 207 203 206 215 215 190 120 215 194 154 182 179 155 96 104 139 149 142 108 138 155 234 217 276 337 51 169 216 201 94 206 258 244 309 355 317 289 330
261 251 238 242 229 209 205 202 205 203 207 214 203 205 198 170 195 179 173 184 167 131 144 144 152 168 170 150 112 161 235 205 227 169 169 177 253 227 244 245 273 257 296 330 349 313 328
252 239 227 221 203 204 202 206 199 196 195 204 201 185 183 173 177 195 196 177 162 168 153 158 117 190 163 187 159 206 221 208 207 191 170 176 218 214 114 201 277 181 337 333 305 315 325
204 195 192 196 197 193 204 195 198 199 189 192 188 193 201 186 191 226 213 215 222 214 164 167 181 146 164 159 183 105 234 233 168 254 180 229 201 195 199 226 281 301 293 304 313 327 328